Date,TemperatureHighF,TemperatureAvgF,TemperatureLowF,DewpointHighF,DewpointAvgF,DewpointLowF,HumidityHigh,HumidityAvg,HumidityLow,PressureMaxIn,PressureMinIn,WindSpeedMaxMPH,WindSpeedAvgMPH,GustSpeedMaxMPH,PrecipitationSumIn
2013-1-1,78,72,65,63,59,49,69,64,54,30.10,29.96,6,0,21,0.00
2013-1-2,84,71,60,66,33,-21,66,36,3,29.99,29.89,1,0,8,0.00
2013-1-3,81,73,66,68,30,-17,67,35,3,30.03,29.93,1,0,6,0.00
2013-1-4,82,72,65,68,14,-18,66,22,3,30.14,30.01,6,1,13,0.00
2013-1-5,74,69,66,38,-11,-17,28,4,3,30.16,30.07,1,0,7,0.11
2013-1-6,82,72,64,69,13,-18,66,22,3,30.10,29.96,0,0,14,0.01
2013-1-7,76,72,67,62,3,-16,61,12,3,30.07,29.98,7,1,14,0.02
2013-1-8,80,76,72,66,27,-13,62,25,3,30.11,29.98,1,0,6,0.39
2013-1-9,81,78,74,68,51,-12,65,47,3,30.19,30.07,1,0,9,0.03
2013-1-10,76,76,75,64,61,56,67,62,52,30.18,30.16,0,0,7,0.00
2013-1-11,78,75,74,65,55,18,66,52,12,30.16,30.06,2,0,12,0.12
2013-1-12,80,76,73,67,62,57,67,64,58,30.09,30.00,3,0,10,0.05
2013-1-13,81,76,73,68,63,58,67,65,57,30.03,29.98,1,0,5,0.00
2013-1-14,81,74,66,66,59,13,68,61,12,30.07,30.02,1,0,12,0.00
2013-1-15,80,75,70,67,62,48,67,63,49,30.04,29.95,1,0,7,0.00
2013-1-16,81,72,63,68,35,-19,66,38,3,30.01,29.92,1,0,6,0.00
2013-1-17,81,72,62,68,32,-15,67,39,3,29.99,29.87,9,1,20,0.12
2013-1-18,71,63,52,59,51,41,71,66,59,30.13,29.98,7,2,17,0.01
2013-1-19,73,70,67,61,21,-16,67,33,3,30.11,30.01,2,0,9,0.21
2013-1-20,77,70,64,64,22,-18,65,30,3,30.04,29.92,6,1,14,0.03
2013-1-21,80,72,66,67,21,-17,65,27,3,29.96,29.86,3,0,12,0.52
2013-1-22,74,68,63,61,34,-18,65,40,3,30.12,29.90,9,4,22,0.00
2013-1-23,74,67,61,60,53,45,68,61,48,30.20,30.10,7,2,13,0.00
2013-1-24,75,65,59,54,49,40,69,56,40,30.19,30.10,6,1,13,0.00
2013-1-25,74,65,57,60,51,36,68,60,36,30.19,30.09,3,0,12,0.00
2013-1-26,77,67,58,59,46,1,68,50,9,30.16,30.07,4,1,12,0.00
2013-1-27,77,69,61,61,49,11,67,51,14,30.19,30.10,7,1,15,0.00
2013-1-28,80,74,72,65,61,52,67,64,47,30.22,30.13,2,0,10,0.00
2013-1-29,78,75,73,66,53,-12,66,50,3,30.15,30.03,1,0,9,0.05
2013-1-30,79,75,71,66,58,12,67,58,11,30.03,29.88,7,1,20,0.01
2013-1-31,72,65,58,54,42,-18,68,53,3,30.09,29.89,2,1,12,0.01
2013-2-1,71,61,52,56,48,38,69,62,52,30.17,30.07,12,3,20,0.01
2013-2-2,72,62,55,53,47,37,69,58,48,30.16,30.03,5,0,13,0.00
2013-2-3,73,64,53,52,42,4,69,49,13,30.07,29.97,6,1,16,0.00
2013-2-4,76,61,49,54,45,38,71,58,31,30.04,29.92,3,0,14,0.00
2013-2-5,77,70,52,61,48,-26,67,51,3,29.98,29.90,1,0,6,0.00
2013-2-6,77,72,59,64,48,-22,67,53,3,30.01,29.92,1,0,9,0.00
2013-2-7,80,74,69,66,61,54,66,64,56,29.98,29.85,2,0,9,0.00
2013-2-8,84,78,67,69,59,-16,65,54,3,29.93,29.84,5,0,13,0.00
2013-2-9,78,73,64,64,47,-18,66,53,3,30.08,29.92,6,2,16,0.00
2013-2-10,75,72,68,62,59,22,67,64,17,30.17,30.06,3,1,16,0.04
2013-2-11,78,74,69,65,60,56,67,64,57,30.12,30.01,3,0,16,0.03
2013-2-12,82,77,71,69,60,40,64,58,30,30.02,29.87,2,0,15,0.00
2013-2-14,64,64,64,-18,-18,-18,3,3,3,29.91,29.91,3,3,12,0.02
2013-2-15,72,67,64,51,-11,-18,48,6,3,29.93,29.85,6,1,12,2.15
2013-2-16,74,68,63,61,33,-19,66,41,3,29.87,29.78,8,2,20,0.02
2013-5-2,74,72,70,18,-12,-14,12,4,3,29.80,29.72,5,2,20,2.78
2013-5-3,87,76,70,70,19,-14,61,25,3,29.73,29.59,2,0,14,2.38
2013-5-4,88,78,68,70,38,-16,61,37,3,29.70,29.59,2,0,15,0.48
2013-5-5,84,74,67,66,33,-16,62,34,3,29.83,29.65,4,1,16,0.00
2013-5-6,86,73,59,64,46,-22,64,48,3,29.91,29.82,4,0,12,0.00
2013-5-7,84,70,62,63,51,36,63,50,35,29.95,29.87,6,1,15,0.00
2013-5-9,85,81,73,70,57,2,60,47,14,30.04,29.96,0,0,5,0.00
2013-5-10,87,79,75,71,29,-100,60,28,3,30.03,29.92,1,0,7,0.00
2013-5-11,86,79,73,69,23,-12,58,23,3,29.97,29.88,5,1,14,0.26
2013-5-12,89,77,71,73,14,-100,60,21,3,29.96,29.84,1,0,13,0.94
2013-5-13,89,78,70,71,31,-14,60,33,3,29.98,29.89,6,1,13,0.72
2013-5-14,79,76,74,61,59,55,61,55,49,30.08,29.97,6,2,17,0.00
2013-5-15,80,75,73,62,59,56,61,59,51,30.09,30.00,3,0,12,0.00
2013-5-16,81,69,69,64,38,-100,62,59,52,30.02,29.95,2,0,9,0.00
2013-5-17,84,76,70,68,35,-100,61,42,3,29.99,29.91,6,1,15,0.00
2013-5-18,84,79,72,67,32,-13,57,29,3,30.01,29.94,1,0,3,0.11
2013-5-19,85,81,75,69,60,-11,60,52,3,30.01,29.91,2,0,10,0.02
2013-5-20,80,76,70,50,-4,-14,37,6,3,29.99,29.88,5,0,16,4.14
2013-5-21,82,75,69,63,9,-15,54,14,3,29.97,29.85,5,0,16,2.40
2013-5-22,82,78,74,66,12,-12,59,15,3,29.88,29.80,1,0,13,0.09
2013-5-23,93,82,74,73,22,-12,60,21,3,29.91,29.81,2,0,12,0.03
2013-5-24,89,83,75,73,37,-11,60,32,3,29.95,29.85,6,1,13,0.00
2013-5-25,84,80,77,68,50,-10,61,45,3,30.07,29.95,8,3,20,0.00
2013-5-26,83,79,73,67,63,57,62,59,52,30.08,30.01,6,2,17,0.00
2013-5-27,83,79,75,66,58,-9,61,51,3,30.06,29.98,6,2,16,0.00
2013-5-28,82,79,75,61,23,-11,50,18,3,30.02,29.96,3,0,13,0.16
2013-5-29,81,77,72,56,2,-13,44,7,3,30.00,29.93,2,0,13,2.09
2013-5-30,81,78,74,58,14,-12,47,15,3,29.98,29.91,5,1,20,1.32
2013-5-31,83,79,75,61,10,-11,47,12,3,29.97,29.91,5,1,18,0.47
2013-6-1,84,78,75,57,0,-12,40,7,3,29.95,29.87,2,0,13,1.07
2013-6-2,87,79,72,69,18,-100,56,21,3,29.91,29.83,1,0,7,0.46
2013-8-13,83,78,80,80,67,-100,91,77,78,29.93,29.90,0,0,3,0.00
2013-8-14,83,78,76,78,71,69,85,79,78,29.92,29.87,0,0,1,0.00
2013-8-15,87,64,81,81,30,-100,100,70,78,29.96,29.86,0,0,3,0.07
2013-8-16,86,80,79,83,72,-100,100,82,78,29.95,29.89,0,0,3,0.12
2013-8-17,85,84,83,83,77,75,98,82,78,29.98,29.91,0,0,1,0.12
2013-8-18,84,80,81,83,74,-100,100,86,78,29.98,29.91,0,0,3,0.31
2013-8-19,89,75,82,83,53,-100,100,81,78,29.98,29.88,0,0,3,0.31
2013-8-20,84,83,82,83,77,72,100,84,78,29.96,29.88,1,0,6,0.04
2013-8-21,86,82,79,86,76,72,100,82,78,29.98,29.91,0,0,10,0.24
2013-8-22,84,83,83,79,76,75,88,79,78,29.96,29.93,0,0,0,0.11
2013-12-10,78,75,72,71,68,64,78,78,78,30.05,30.00,0,0,0,0.02
2013-12-11,80,72,68,74,65,61,88,78,78,30.10,30.01,2,0,8,0.00
2013-12-12,71,70,70,64,63,63,78,78,78,30.06,30.03,0,0,0,0.00
2013-12-19,62,62,62,55,55,55,78,78,78,30.12,30.12,0,0,0,0.00
2013-12-21,80,78,77,77,73,70,96,85,78,30.04,29.99,0,0,6,0.00
2013-12-22,79,78,78,77,72,71,93,79,78,30.06,29.98,0,0,6,0.00
2013-12-23,80,77,73,77,71,66,94,79,78,30.07,30.01,0,0,1,0.00
2013-12-24,73,71,69,69,68,66,100,89,78,30.05,30.04,7,4,17,0.00
2013-12-25,73,73,73,73,71,69,99,92,87,30.02,30.01,3,2,17,0.00
2013-12-26,76,75,73,74,71,67,98,87,78,30.07,29.98,2,0,10,0.00
2014-1-1,78,77,77,71,70,70,78,78,78,29.97,29.94,0,0,0,0.00
2014-1-2,78,73,68,72,66,61,82,78,78,29.94,29.82,0,0,3,0.00